SL-24 R/B, 40047

Orbit data source: Space-Track

SL-24 R/B, 40047 is space debris in SSO originally from a launch on Thu, 19 Jun 2014 UTC launched from the Orenburg, Russia (OREN). Debris objects in space refer to the collection of defunct objects orbiting the Earth. Examples of debris include non-operational satellites, rocket bodies, and fragments generated from explosions, collisions, or faulty payload assembly.

Loading next visibility...
Identifier
40047, 2014-033AP
Orbit
SSO
Country
Flag of CISCIS
Related business
Manufacturer
Yuzhnoe
Mission
Spacecraft
Bus & Motor
15A18-BR, Unknown motor
Mass
~1,000 kg wet, ~1,000 kg dry
Launch date (UTC)
2014-06-19 (11 years ago)
Launch vehicle
Unknown
Launch site
Orenburg, Russia (OREN)
Object type
Payload
Rocket body
Debris
Shape & HBR
Cyl, 1.5 m
Radar Cross Section
10.603 m², Large (>1 m²)

Expand to show TLE details & history
Last TLE update: 1 day ago

TLE from 1 day ago
0 SL-24 R/B
1 40047U 14033AP  25241.75481923  .00000169  00000-0  90342-4 0  9997
2 40047  97.8983 149.4053 0567808 354.5381   4.9739 13.61895580556363
Epoch: 2025-08-29T18:06Z
TLE epoch observation values (Epoch: 2025-08-29T18:06:56.381Z)
Latitude
0.00003°
Longitude
-100.52855°
Altitude
612.81 km
Speed
7.763 km/s
True Right ascension
09h 57m 37s
True Declination
0° 00' 00"
Sunlit
Object was in daylight at epoch
Visualization orbit readout
Latitude
Unknown
Longitude
Unknown
Altitude
Unknown
Speed
Unknown
Apparent Right ascension
Unknown
Apparent Declination
Unknown
Sunlit
N/A
Visualization observer readout
Local Sidereal Time
16:04:00
Azimuth
Unknown
Elevation
Unknown
Doppler factor
Unknown
Orbital elements
Apogee altitude
1,446.411 km
Perigee altitude
605.586 km
Semi-major axis
7,404.135 km
Eccentricity
0.05678
Inclination
97.8983°
RAAN
149.4053°
Arg. of periapsis
354.5381°
True anomaly
5.5808°
Mean anomaly
4.9739°
Eccentric anomaly
5.27288°
Mean motion
3.40668 °/min
Orbital period
105.67 mins
BSTAR
0.000090342
Loading maneuver chart data...
Computing Atmospheric mass density...
Loading historical data...
Loading historical data...
Loading historical data...
Loading historical data...
Loading historical data...
Loading historical data...
Loading historical data...

Documentation

Showing up to 5 results
|